This is the latest recevied weather packets stored in our database for station/object N4BBA. If no packets are shown the sender has not sent any weather packets the latest 10 day(s).
| Time | Temp. | Humidity | Pressure | Rain* | Wind** | Luminosity | Snow |
|---|---|---|---|---|---|---|---|
| 1778020122 | 25° C | 50% | 1014.2 hPa | 0 mm | - | 156 W/m² | - |
| 1778019818 | 25.56° C | 49% | 1014.1 hPa | 0 mm | - | 92 W/m² | - |
| 1778019516 | 26.11° C | 48% | 1014 hPa | 0 mm | - | 115 W/m² | - |
| 1778019212 | 26.11° C | 48% | 1014 hPa | 0 mm | - | 225 W/m² | - |
| 1778018909 | 26.11° C | 47% | 1014.1 hPa | 0 mm | - | 138 W/m² | - |
| 1778018606 | 26.11° C | 47% | 1014 hPa | 0 mm | - | 215 W/m² | - |
| 1778018304 | 25.56° C | 49% | 1014.2 hPa | 0 mm | - | 260 W/m² | - |
| 1778018002 | 25.56° C | 49% | 1014.1 hPa | 0 mm | - | 101 W/m² | - |
| 1778017700 | 26.11° C | 48% | 1014 hPa | 0 mm | - | 138 W/m² | - |
| 1778017397 | 26.67° C | 46% | 1014 hPa | 0 mm | - | 139 W/m² | - |
| 1778017094 | 27.22° C | 46% | 1013.9 hPa | 0 mm | - | 139 W/m² | - |
| 1778016792 | 26.67° C | 46% | 1013.8 hPa | 0 mm | - | 346 W/m² | - |
| 1778016487 | 26.67° C | 45% | 1013.8 hPa | 0 mm | - | 384 W/m² | - |
| 1778016185 | 26.67° C | 45% | 1014.1 hPa | 0 mm | - | 403 W/m² | - |
| 1778015881 | 26.67° C | 45% | 1014 hPa | 0 mm | - | 398 W/m² | - |
| 1778015579 | 26.67° C | 45% | 1014 hPa | 0 mm | - | 411 W/m² | - |
| 1778015275 | 27.22° C | 45% | 1014 hPa | 0 mm | - | 439 W/m² | - |
| 1778014972 | 26.67° C | 46% | 1014.2 hPa | 0 mm | - | 447 W/m² | - |
| 1778014669 | 26.11° C | 46% | 1014.2 hPa | 0 mm | - | 468 W/m² | - |
| 1778014368 | 26.67° C | 46% | 1014.3 hPa | 0 mm | - | 186 W/m² | - |
| 1778014063 | 26.67° C | 46% | 1014.1 hPa | 0 mm | - | 524 W/m² | - |
| 1778013762 | 26.67° C | 46% | 1014.1 hPa | 0 mm | - | 557 W/m² | - |
| 1778013458 | 26.67° C | 46% | 1014.1 hPa | 0 mm | - | 566 W/m² | - |
| 1778013155 | 26.11° C | 47% | 1014.1 hPa | 0 mm | - | 531 W/m² | - |
| 1778012851 | 26.11° C | 47% | 1014.1 hPa | 0 mm | - | 375 W/m² | - |
* Rain latest hour (hover to see other rain measurements)
** Current wind speed in m/s (hover to see current wind gust speed)